Weather Roundup
Issued by NWS Springfield, MO

Home | Current Version | Previous Version | Text Only | Print | Product List | Glossary On
Versions: 1 2 3 4 5 6 7 8 9 10 11 12 13 14 15 16 17 18 19 20 21 22 23 24 25 26 27 28 29 30 31 32 33 34 35 36 37 38 39 40 41 42 43 44 45 46 47 48 49 50
000
NZUS99 KSGF 050607
HRRSGF

HOURLY WEATHER
NATIONAL WEATHER SERVICE SPRINGFIELD MO
100 AM CDT TUE MAY 05 2015

......SGF CWA......

CITY           SKY/WX    TMP DP  RH WIND       PRES   REMARKS
SPRINGFIELD    PTCLDY    62  53  72 S7        30.15R
6HR MIN TEMP:  62; 6HR MAX TEMP:  79;

JOPLIN         CLEAR     64  54  69 SE7       30.12F
6HR MIN TEMP:  64; 6HR MAX TEMP:  78;

WEST PLAINS    CLEAR     67  53  61 S6        30.19R
6HR MIN TEMP:  67; 6HR MAX TEMP:  78;

ROLLA          MOCLDY    68  55  63 S13G21    30.14R
6HR MIN TEMP:  67; 6HR MAX TEMP:  76;

OSAGE BEACH    CLOUDY    66  54  63 S8        30.15R
BRANSON        CLEAR     64  54  68 CALM      30.18S

......SURROUNDING SGF CWA......

CITY           SKY/WX    TMP DP  RH WIND       PRES   REMARKS
CHANUTE        MOCLDY    64  59  83 SE7       30.10R
PARSONS        PTCLDY    66  57  72 SE5       30.11R
COFFEYVILLE    PTCLDY    63  55  75 S6        30.09S
EMPORIA        CLOUDY    61  57  87 E8        30.09F
GROVE OK       CLEAR     63  55  77 SE3       30.13S
ROGERS AR      CLEAR     62  55  77 E6        30.16S
SILOAM SPRINGS CLEAR     61  50  67 CALM      30.15S
HARRISON AR    CLEAR     62  54  74 CALM      30.18R
NEAR YELLVILLE CLEAR     63  55  77 CALM      30.15S

......KANSAS AND MISSOURI......

CITY           SKY/WX    TMP DP  RH WIND       PRES   REMARKS
KANSAS CTY INT CLOUDY    61  60  97 S3        30.10F
DOWNTOWN KC    CLOUDY    65  62  90 W5        30.10F
COLUMBIA       CLOUDY    68  57  68 S9        30.11R
SEDALIA        CLOUDY    72  60  66 NW5       30.12R
ST JOSEPH      CLOUDY    62  61  96 S6        30.08F
ST LOUIS       MOCLDY    75  53  46 S9        30.13R
SPIRIT OF STL  CLOUDY    72  54  53 SW7       30.12R
KIRKSVILLE     CLOUDY    62  61  96 NE3       30.10S
WICHITA        MOCLDY    67  56  67 SE7       30.06R
TOPEKA         CLOUDY    62  60  93 SE3       30.10S
OLATHE         CLOUDY    63  62  97 NW5       30.11R

......TENNESSEE......

CITY           SKY/WX    TMP DP  RH WIND       PRES   REMARKS
MEMPHIS        PTCLDY    69  56  62 S6        30.19R
NASHVILLE      CLEAR     62  54  74 S5        30.24R

......ARKANSAS.......

CITY           SKY/WX    TMP DP  RH WIND       PRES   REMARKS
FAYETTEVILLE   CLEAR     56  56 100 CALM      30.15R
FT SMITH       CLEAR     65  56  72 CALM      30.11R
LITTLE ROCK    PTCLDY    66  55  67 CALM      30.15R

......OKLAHOMA.......

CITY           SKY/WX    TMP DP  RH WIND       PRES   REMARKS
TULSA          MOCLDY    63  55  75 SE7       30.08R
PONCA CITY     PTCLDY    69  57  65 SE13      30.06R
MCALESTER      PTCLDY    61  54  77 E5        30.09R
OKLAHOMA CITY  MOCLDY    65  56  72 SE9       30.04S

......IOWA............

CITY           SKY/WX    TMP DP  RH WIND       PRES   REMARKS
DES MOINES     CLOUDY    64  61  90 E6        30.07S
QUAD CITIES    LGT RAIN  63  61  93 E12       30.11R FOG

......ILLINOIS........

CITY           SKY/WX    TMP DP  RH WIND       PRES   REMARKS
QUINCY         CLOUDY    69  60  73 S7        30.08R
CHICAGO        CLOUDY    56  38  50 NW5       30.18R



USA.gov is the U.S. government's official web portal to all federal, state and local government web resources and services.